User: anonymous   Login
Location: ?????
(54.9266°N, 38.5527°E)
Time: 06:51:21
(UTC+00:00)
Language:

NOSS 3-1 (A) - Orbit

View from above orbital plane
View from above orbital plane
View from above satellite
View from above satellite

Ground track
Ground track

The orbit data is extracted from the following two-line orbital elements,

1 26905U 01040A   24136.88443561 0.00000800  00000-0  50280-3 0    01
2 26905  63.3832  50.3416 0594078   7.3115 352.6885 13.41109270    03
Epoch (UTC): 15 May 2024 21:13:35
Eccentricity: 0.0594078
inclination: 63.3832°
perigee height: 660 km
apogee height: 1550 km
right ascension of ascending node: 50.3416°
argument of perigee: 7.3115°
revolutions per day: 13.41109270
mean anomaly at epoch: 352.6885°
orbit number at epoch: 0

The dashed part of the orbit path shows where the satellite is in the earth's shadow,  

DLR